Location: Colle Santa Colomba
(42.0333°N, 12.5667°E)
Time: 04:07:59
(UTC+00:00)

H-2A R/B - Pass Details

Date: 25 October 2021
Orbit: 528 x 650 km, 98.3° (Epoch: 05 December)

Event Time Altitude Azimuth Distance (km) Brightness Sun altitude
Rises 18:24:47 0° 186° (S) 2,889 6.0 -25.1°
Reaches altitude 10° 18:27:09 10° 195° (SSW) 1,969 5.2 -25.5°
Maximum altitude 18:31:04 35° 261° (W) 982 4.1 -26.2°
Drops below altitude 10° 18:34:53 10° 328° (NNW) 1,915 5.5 -27.0°
Sets 18:37:10 0° 338° (NNW) 2,797 6.3 -27.4°
